Weather History for San Antonio Stinson, TX

Change the Weather History Date:

Wednesday, February 26, 2014

  Actual Average Record
Temperature  
Mean Temperature 47 °F -  
Max Temperature 57 °F 64 °F 88 °F (2009)
Min Temperature 36 °F 46 °F 28 °F (2002)
Degree Days  
Heating Degree Days 18    
Moisture  
Dew Point 38 °F    
Average Humidity 79    
Maximum Humidity 89    
Minimum Humidity 70    
Precipitation  
Precipitation 0.28 in - - ()
Sea Level Pressure  
Sea Level Pressure 30.14 in    
Wind  
Wind Speed 13 mph (NNE)    
Max Wind Speed 20 mph    
Max Gust Speed 34 mph    
Visibility 6 miles    
Events Rain    
Averages and records for this station are not official NWS values.
T = Trace of Precipitation, MM = Missing Value Source: NWS Daily Summary

Daily Weather History Graph

Daily Weather History Graph

Search for Another Location

Airport:

Trip Planner

Search our weather history database for the weather conditions in past years. The results will help you decide how hot, cold, wet, or windy it might be!

Date:

Astronomy

Feb. 26, 2014 Rise Set
Actual Time 7:02 AM CST 6:31 PM CST
Civil Twilight 6:38 AM CST 6:55 PM CST
Nautical Twilight 6:10 AM CST 7:23 PM CST
Astronomical Twilight 5:43 AM CST 7:50 PM CST
Moon 4:40 AM CST (2/26) 3:56 PM CST (2/26)
Length of Visible Light 12h 16m
Length of Day
11h 28m
Waning Crescent, 10% of the Moon is Illuminated
Feb 26
Waning Crescent
Mar 1
New
Mar 8
First Quarter
Mar 16
Full
Mar 23
Last Quarter

Hourly Weather History & Observations

Time (CST) Temp. Windchill Dew Point Humidity Pressure Visibility Wind Dir Wind Speed Gust Speed Precip Events Conditions
12:53 AM 57.0 °F - 52.0 °F 83% 29.97 in 7.0 mi NNE 13.8 mph - 0.00 in Rain Light Rain
1:53 AM 55.0 °F - 51.1 °F 86% 29.97 in 9.0 mi NNE 12.7 mph 18.4 mph 0.00 in   Overcast
2:35 AM 53.6 °F - 48.2 °F 82% 29.99 in 8.0 mi NNE 12.7 mph - N/A   Overcast
2:53 AM 54.0 °F - 48.9 °F 83% 29.98 in 8.0 mi NNE 12.7 mph 21.9 mph N/A   Overcast
3:53 AM 52.0 °F - 46.0 °F 80% 30.00 in 9.0 mi NNE 19.6 mph 31.1 mph N/A   Overcast
4:53 AM 50.0 °F - 44.1 °F 80% 30.04 in 9.0 mi NNE 15.0 mph 29.9 mph N/A   Overcast
5:14 AM 50.0 °F - 42.8 °F 76% 30.04 in 10.0 mi NE 19.6 mph 27.6 mph N/A   Overcast
5:53 AM 48.0 °F - 39.0 °F 71% 30.06 in 10.0 mi NNE 19.6 mph 33.4 mph N/A   Overcast
6:53 AM 46.0 °F 38.8 °F 37.0 °F 71% 30.09 in 10.0 mi North 18.4 mph 27.6 mph N/A   Overcast
7:53 AM 45.0 °F 37.1 °F 37.0 °F 74% 30.13 in 5.0 mi North 19.6 mph 28.8 mph 0.00 in Rain Light Rain
7:59 AM 44.6 °F 36.6 °F 37.4 °F 76% 30.12 in 1.8 mi North 19.6 mph 34.5 mph 0.05 in Rain Heavy Rain
8:27 AM 42.8 °F 34.8 °F 37.4 °F 81% 30.16 in 2.5 mi North 17.3 mph 29.9 mph 0.14 in Rain Light Rain
8:53 AM 42.1 °F 33.6 °F 37.9 °F 85% 30.17 in 2.5 mi NNE 18.4 mph 26.5 mph 0.23 in Rain Light Rain
9:00 AM 42.8 °F 35.4 °F 37.4 °F 81% 30.18 in 3.0 mi NNE 15.0 mph 31.1 mph 0.01 in Rain Rain
9:28 AM 42.8 °F 35.1 °F 35.6 °F 76% 30.18 in 3.0 mi NNE 16.1 mph 31.1 mph 0.02 in Rain Light Rain
9:53 AM 42.1 °F 34.9 °F 37.0 °F 82% 30.18 in 5.0 mi NNE 13.8 mph 24.2 mph 0.02 in Rain Light Rain
10:10 AM 42.8 °F 36.2 °F 37.4 °F 81% 30.20 in 4.0 mi NNE 12.7 mph 24.2 mph 0.00 in Rain Light Rain
10:29 AM 41.0 °F 32.8 °F 37.4 °F 87% 30.21 in 2.5 mi North 16.1 mph 20.7 mph 0.02 in Rain Light Rain
10:45 AM 41.0 °F 34.3 °F 37.4 °F 87% 30.21 in 3.0 mi North 11.5 mph - 0.02 in Rain Light Rain
10:53 AM 41.0 °F 32.8 °F 37.0 °F 86% 30.22 in 4.0 mi North 16.1 mph 23.0 mph 0.02 in Rain Light Rain
11:53 AM 43.0 °F 35.7 °F 37.0 °F 80% 30.21 in 7.0 mi North 15.0 mph 21.9 mph 0.00 in   Overcast
12:53 PM 42.1 °F 34.5 °F 35.1 °F 76% 30.20 in 6.0 mi NNE 15.0 mph 21.9 mph 0.00 in Rain Light Rain
1:38 PM 42.8 °F 35.4 °F 33.8 °F 70% 30.15 in 8.0 mi North 15.0 mph - 0.00 in   Overcast
1:49 PM 42.8 °F 35.8 °F 35.6 °F 76% 30.15 in 8.0 mi NNE 13.8 mph 18.4 mph 0.00 in   Overcast
1:53 PM 43.0 °F 36.8 °F 34.0 °F 71% 30.16 in 8.0 mi NNE 11.5 mph 20.7 mph 0.00 in   Overcast
2:53 PM 42.1 °F 36.1 °F 35.1 °F 76% 30.18 in 5.0 mi North 10.4 mph - 0.00 in Rain Light Rain
3:53 PM 39.9 °F 35.1 °F 34.0 °F 79% 30.17 in 5.0 mi NNW 6.9 mph - 0.01 in Rain Light Rain
4:39 PM 42.8 °F 38.6 °F 35.6 °F 76% 30.15 in 7.0 mi North 6.9 mph - 0.00 in   Overcast
4:53 PM 41.0 °F 35.8 °F 35.1 °F 79% 30.16 in 7.0 mi North 8.1 mph - 0.00 in Rain Light Rain
5:42 PM 42.8 °F 38.6 °F 33.8 °F 70% 30.15 in 8.0 mi NNE 6.9 mph - 0.00 in   Overcast
5:53 PM 41.0 °F 36.4 °F 33.1 °F 73% 30.17 in 8.0 mi NNE 6.9 mph - 0.00 in   Overcast
6:53 PM 41.0 °F 37.1 °F 33.1 °F 73% 30.18 in 8.0 mi NNE 5.8 mph - N/A   Partly Cloudy
7:53 PM 41.0 °F - 32.0 °F 70% 30.19 in 9.0 mi Calm Calm - N/A   Partly Cloudy
8:53 PM 41.0 °F - 33.1 °F 73% 30.21 in 8.0 mi Calm Calm - N/A   Scattered Clouds
9:53 PM 37.9 °F - 34.0 °F 86% 30.22 in 7.0 mi Calm Calm - N/A   Clear
10:53 PM 37.9 °F - 34.0 °F 86% 30.21 in 5.0 mi Calm Calm - N/A   Clear
11:53 PM 36.0 °F - 33.1 °F 89% 30.20 in 5.0 mi Calm Calm - N/A   Clear